TimeEDT,TemperatureF,Dew PointF,Humidity,Sea Level PressureIn,VisibilityMPH,Wind Direction,Wind SpeedMPH,Gust SpeedMPH,PrecipitationIn,Events,Conditions,WindDirDegrees,DateUTC
12:15 AM,51.8,37.4,58,29.91,10.0,West,4.6,-,N/A,,Clear,270,2012-11-01 04:15:00
12:35 AM,51.8,37.4,58,29.91,10.0,West,5.8,-,N/A,,Clear,270,2012-11-01 04:35:00
12:55 AM,51.8,39.2,62,29.92,10.0,West,4.6,-,N/A,,Clear,280,2012-11-01 04:55:00
1:15 AM,53.6,39.2,58,29.92,10.0,WNW,4.6,-,N/A,,Clear,290,2012-11-01 05:15:00
1:35 AM,51.8,39.2,62,29.93,10.0,West,3.5,-,N/A,,Clear,280,2012-11-01 05:35:00
1:55 AM,51.8,37.4,58,29.93,10.0,Calm,Calm,-,N/A,,Clear,0,2012-11-01 05:55:00
2:15 AM,50.0,39.2,66,29.93,10.0,WNW,3.5,-,N/A,,Clear,300,2012-11-01 06:15:00
2:35 AM,50.0,39.2,66,29.93,10.0,Calm,Calm,-,N/A,,Clear,0,2012-11-01 06:35:00
2:55 AM,50.0,37.4,62,29.93,10.0,WNW,3.5,-,N/A,,Clear,290,2012-11-01 06:55:00
3:15 AM,50.0,37.4,62,29.93,10.0,West,3.5,-,N/A,,Clear,280,2012-11-01 07:15:00
3:35 AM,46.4,37.4,71,29.93,10.0,WNW,3.5,-,N/A,,Clear,290,2012-11-01 07:35:00
3:55 AM,44.6,37.4,76,29.93,10.0,West,3.5,-,N/A,,Clear,270,2012-11-01 07:55:00
4:15 AM,46.4,37.4,71,29.94,10.0,WNW,4.6,-,N/A,,Clear,290,2012-11-01 08:15:00
4:35 AM,46.4,35.6,66,29.94,10.0,WNW,4.6,-,N/A,,Clear,290,2012-11-01 08:35:00
4:55 AM,46.4,35.6,66,29.94,10.0,WNW,4.6,-,N/A,,Clear,290,2012-11-01 08:55:00
5:15 AM,46.4,35.6,66,29.95,10.0,WNW,4.6,-,N/A,,Clear,290,2012-11-01 09:15:00
5:35 AM,42.8,35.6,76,29.95,10.0,West,4.6,-,N/A,,Clear,270,2012-11-01 09:35:00
5:55 AM,42.8,35.6,76,29.96,10.0,West,3.5,-,N/A,,Clear,280,2012-11-01 09:55:00
6:15 AM,41.0,33.8,76,29.96,10.0,West,3.5,-,N/A,,Clear,270,2012-11-01 10:15:00
6:35 AM,41.0,35.6,81,29.96,10.0,West,3.5,-,N/A,,Clear,280,2012-11-01 10:35:00
6:55 AM,41.0,33.8,76,29.97,10.0,West,3.5,-,N/A,,Clear,280,2012-11-01 10:55:00
7:15 AM,41.0,33.8,76,29.97,10.0,West,4.6,-,N/A,,Clear,280,2012-11-01 11:15:00
7:35 AM,42.8,33.8,70,29.97,10.0,WNW,4.6,-,N/A,,Clear,290,2012-11-01 11:35:00
7:55 AM,42.8,33.8,70,29.98,10.0,WNW,5.8,-,N/A,,Clear,290,2012-11-01 11:55:00
8:15 AM,42.8,32.0,66,29.99,10.0,WNW,5.8,-,N/A,,Clear,290,2012-11-01 12:15:00
8:35 AM,46.4,32.0,57,29.99,10.0,WNW,6.9,-,N/A,,Clear,290,2012-11-01 12:35:00
8:55 AM,48.2,32.0,54,30.00,10.0,WNW,6.9,-,N/A,,Clear,300,2012-11-01 12:55:00
9:15 AM,50.0,30.2,47,30.00,10.0,WNW,8.1,-,N/A,,Clear,300,2012-11-01 13:15:00
9:35 AM,51.8,28.4,41,30.01,10.0,WNW,9.2,-,N/A,,Clear,300,2012-11-01 13:35:00
9:55 AM,53.6,24.8,33,30.01,10.0,WNW,8.1,-,N/A,,Clear,300,2012-11-01 13:55:00
10:15 AM,53.6,23.0,30,30.01,10.0,NW,9.2,-,N/A,,Clear,320,2012-11-01 14:15:00
10:35 AM,55.4,17.6,23,30.01,10.0,WNW,9.2,-,N/A,,Clear,300,2012-11-01 14:35:00
10:55 AM,59.0,14.0,17,30.01,10.0,NW,11.5,21.9,N/A,,Clear,320,2012-11-01 14:55:00
11:15 AM,59.0,10.4,15,30.01,7.0,NW,13.8,20.7,N/A,,Clear,310,2012-11-01 15:15:00
11:35 AM,60.8,12.2,15,30.01,7.0,NW,11.5,19.6,N/A,,Clear,310,2012-11-01 15:35:00
11:55 AM,60.8,12.2,15,30.01,7.0,WNW,11.5,21.9,N/A,,Clear,290,2012-11-01 15:55:00
12:15 PM,62.6,8.6,12,30.01,10.0,NW,9.2,19.6,N/A,,Clear,310,2012-11-01 16:15:00
12:35 PM,62.6,3.2,9,30.00,10.0,NW,13.8,21.9,N/A,,Clear,310,2012-11-01 16:35:00
12:55 PM,64.4,-0.4,7,29.99,10.0,NW,15.0,19.6,N/A,,Clear,310,2012-11-01 16:55:00
1:15 PM,64.4,-0.4,7,29.97,10.0,NNW,10.4,23.0,N/A,,Clear,330,2012-11-01 17:15:00
1:35 PM,66.2,-2.2,6,29.97,10.0,NW,18.4,24.2,N/A,,Clear,320,2012-11-01 17:35:00
1:55 PM,66.2,-0.4,7,29.95,10.0,NW,16.1,24.2,N/A,,Clear,320,2012-11-01 17:55:00
2:15 PM,68.0,3.2,8,29.94,10.0,NW,10.4,18.4,N/A,,Clear,320,2012-11-01 18:15:00
2:35 PM,69.8,1.4,7,29.93,10.0,WNW,9.2,18.4,N/A,,Clear,290,2012-11-01 18:35:00
2:55 PM,69.8,1.4,7,29.93,10.0,WNW,11.5,19.6,N/A,,Clear,290,2012-11-01 18:55:00
3:15 PM,69.8,1.4,7,29.92,10.0,WNW,13.8,-,N/A,,Clear,290,2012-11-01 19:15:00
3:35 PM,69.8,-4.0,5,29.92,10.0,NNW,11.5,19.6,N/A,,Clear,330,2012-11-01 19:35:00
3:55 PM,69.8,-2.2,6,29.92,10.0,NW,11.5,21.9,N/A,,Clear,310,2012-11-01 19:55:00
4:15 PM,69.8,-2.2,6,29.92,10.0,NW,8.1,19.6,N/A,,Clear,310,2012-11-01 20:15:00
4:35 PM,69.8,-4.0,5,29.92,10.0,WNW,13.8,-,N/A,,Clear,300,2012-11-01 20:35:00
4:55 PM,69.8,-2.2,6,29.92,10.0,WNW,10.4,17.3,N/A,,Clear,290,2012-11-01 20:55:00
5:15 PM,69.8,1.4,7,29.92,10.0,West,11.5,-,N/A,,Clear,270,2012-11-01 21:15:00
5:35 PM,68.0,-2.2,6,29.92,10.0,WNW,10.4,19.6,N/A,,Clear,300,2012-11-01 21:35:00
5:55 PM,68.0,-0.4,7,29.92,7.0,WNW,9.2,-,N/A,,Clear,300,2012-11-01 21:55:00
6:15 PM,66.2,1.4,8,29.93,10.0,NW,5.8,-,N/A,,Clear,310,2012-11-01 22:15:00
6:35 PM,64.4,3.2,9,29.94,5.0,WNW,4.6,-,N/A,,Haze,300,2012-11-01 22:35:00
6:55 PM,60.8,8.6,13,29.94,5.0,WNW,4.6,-,N/A,,Haze,290,2012-11-01 22:55:00
7:15 PM,60.8,8.6,13,29.96,10.0,WNW,4.6,-,N/A,,Clear,300,2012-11-01 23:15:00
7:35 PM,57.2,12.2,17,29.96,10.0,NW,3.5,-,N/A,,Clear,310,2012-11-01 23:35:00
7:55 PM,57.2,12.2,17,29.97,10.0,WNW,3.5,-,N/A,,Clear,300,2012-11-01 23:55:00
8:15 PM,55.4,14.0,20,29.98,10.0,Calm,Calm,-,N/A,,Clear,0,2012-11-02 00:15:00
8:35 PM,51.8,21.2,30,29.98,10.0,West,3.5,-,N/A,,Clear,280,2012-11-02 00:35:00
8:55 PM,50.0,21.2,32,29.98,10.0,Calm,Calm,-,N/A,,Clear,0,2012-11-02 00:55:00
9:15 PM,44.6,23.0,43,29.99,10.0,Calm,Calm,-,N/A,,Clear,0,2012-11-02 01:15:00
9:55 PM,51.8,17.6,26,30.00,10.0,WNW,5.8,-,N/A,,Clear,300,2012-11-02 01:55:00
10:15 PM,53.6,15.8,22,30.00,10.0,WNW,5.8,-,N/A,,Clear,300,2012-11-02 02:15:00
10:35 PM,53.6,15.8,22,30.00,10.0,WNW,3.5,-,N/A,,Clear,300,2012-11-02 02:35:00
10:55 PM,53.6,14.0,21,30.01,10.0,NW,4.6,-,N/A,,Clear,310,2012-11-02 02:55:00
11:15 PM,51.8,15.8,24,30.01,10.0,WNW,3.5,-,N/A,,Clear,300,2012-11-02 03:15:00
11:35 PM,50.0,17.6,28,30.01,10.0,WNW,4.6,-,N/A,,Clear,300,2012-11-02 03:35:00
11:55 PM,51.8,17.6,26,30.01,10.0,WNW,4.6,-,N/A,,Clear,300,2012-11-02 03:55:00